[[{"header":{"parameterUnit":"m.s-1","parameterCategory":1,"la1":30.2991,"la2":30.254,"lo1":-89.0895,"lo2":-89.0444,"dy":0.0017,"dx":0.0017,"nx":28,"ny":28,"refTime":"2025-06-01T03:00:00:Z","depth":0,"parameterNumber":2,"parameterNumberName":"U-component_of_WINDS"},"data":[0,0,0,0,0,0,0,0,0,0,0,0,0,0,0,0,0,0,0,0,0,0,0,0,0,0,0,0,0,0,0,0,0,0,0,0,0,0,0,0,0,0,0,0,0,0,0,0,0,0,0,0,0,0,0,0,0,0,0.5719,0.572,0,0.5781,0.5782,0.5783,0.5789,0.5788,0.5787,0.5787,0.5852,0.5854,0.5856,0,0,0,0,0,0,0,0,0,0,0,0,0,0.5606,0.5608,0.5719,0.572,0.5721,0.5781,0.5782,0.5783,0.5789,0.5788,0.5787,0.5786,0.5851,0.5854,0.5856,0,0,0,0,0,0,0,0,0,0,0,0,0,0.566,0.5609,0.5719,0.5731,0.5733,0.5781,0.5782,0.5783,0.5789,0.5788,0.5787,0.5786,0.585,0.5853,0.5857,0.5898,0,0,0.5867,0.5869,0,0,0,0,0,0,0,0,0.5657,0.5664,0.5729,0.573,0.5732,0.5776,0.5766,0.5822,0.5789,0.5768,0.5787,0.5786,0.5827,0.5833,0.5847,0.5901,0.5904,0.5868,0.587,0.5871,0.5872,0,0,0,0,0,0,0,0.5653,0.5662,0.5744,0.5729,0.5732,0.5733,0.574,0.5776,0.5802,0.5769,0.577,0.5777,0.5828,0.5843,0.5848,0.5905,0.5868,0.5871,0.5873,0.5874,0.5994,0.5995,0,0,0,0,0,0,0.5647,0.5659,0.5742,0.5746,0.5691,0.5736,0.5743,0.5763,0.5802,0.5807,0.5778,0.5777,0.5838,0.5844,0.585,0.59,0.5871,0.5875,0.5877,0.5993,0.5994,0.5996,0,0,0,0,0,0,0.5645,0.5655,0.5739,0.5702,0.5713,0.5739,0.5761,0.5765,0.578,0.5808,0.5813,0.5788,0.5837,0.5845,0.5886,0.5902,0.5876,0.5879,0.5992,0.5994,0.5995,0.5999,0,0,0,0,0,0,0.5642,0.5654,0.567,0.5703,0.5715,0.5774,0.5762,0.5767,0.5786,0.5785,0.5819,0.5824,0.5837,0.588,0.5889,0.5906,0.5882,0.599,0.5993,0.5995,0.5998,0.6001,0.6004,0,0,0,0,0,0.5637,0.5669,0.5671,0.5681,0.5736,0.5775,0.5782,0.5795,0.5787,0.5803,0.5821,0.5823,0.5899,0.5884,0.5894,0.5913,0.5989,0.5992,0.5994,0.5997,0.6,0.6004,0,0,0,0,0,0,0.5638,0.5674,0.5676,0.5719,0.5744,0.5775,0.5796,0.5799,0.5827,0.5826,0.5842,0.585,0.5889,0.5905,0.5888,0.5954,0.5943,0.5948,0.5942,0.5945,0.5948,0.5943,0.5885,0,0,0,0,0,0.5643,0.5672,0.5702,0.5737,0.5749,0.577,0.5788,0.5796,0.5823,0.5833,0.5854,0.588,0.5909,0.5929,0.5957,0.6,0.6007,0.6018,0.6021,0.6023,0.6027,0.6049,0.6054,0.6004,0.6004,0.6004,0,0,0.5655,0.5677,0.5695,0.5738,0.5758,0.5786,0.5779,0.581,0.5832,0.5838,0.5876,0.5893,0.5923,0.5964,0.5983,0.5979,0.6042,0.6026,0.6028,0.603,0.6052,0.6057,0.6061,0.6005,0.6005,0.6005,0,0,0.5689,0.571,0.5741,0.576,0.579,0.5804,0.5812,0.5843,0.5854,0.5892,0.5897,0.5923,0.5974,0.5994,0.6011,0.6052,0.6054,0.6061,0.6076,0.6097,0.6101,0.6104,0.6118,0.6122,0.6064,0.6064,0.6064,0,0.5699,0.5742,0.5756,0.5787,0.5805,0.5811,0.5842,0.5861,0.5899,0.5911,0.5906,0.5968,0.5989,0.6034,0.6044,0.6058,0.6066,0.6057,0.6099,0.6103,0.6106,0.6119,0.6124,0.6065,0.6065,0.6065,0.6065,0,0.5752,0.5782,0.5803,0.5839,0.586,0.589,0.5908,0.5928,0.5934,0.5948,0.5987,0.6012,0.6045,0.6056,0.6064,0.6102,0.6098,0.6096,0.6085,0.6111,0.6123,0.6129,0.6066,0.6066,0.6065,0.6065,0,0,0.5789,0.5831,0.5838,0.5854,0.5887,0.591,0.5941,0.5972,0.5988,0.6014,0.6039,0.6081,0.6079,0.6098,0.6107,0.6126,0.6155,0.6121,0.6122,0.6126,0.6197,0.6198,0.6203,0.6157,0.6158,0.6159,0.6194,0,0.5826,0.588,0.5893,0.5939,0.5966,0.5972,0.5998,0.6021,0.6035,0.606,0.6075,0.6104,0.6099,0.6111,0.613,0.6147,0.6169,0.6145,0.618,0.6181,0.6171,0.621,0.6211,0.6244,0.6199,0.62,0.6201,0,0.5877,0.5902,0.5951,0.5979,0.599,0.6014,0.6043,0.6067,0.6093,0.6102,0.6122,0.6129,0.6161,0.6149,0.6192,0.6175,0.619,0.6201,0.6202,0.6205,0.6192,0.6213,0.6255,0.6259,0.6209,0.6208,0.6207,0,0.5896,0.5943,0.5978,0.5991,0.6025,0.6041,0.6056,0.6081,0.6099,0.6125,0.6136,0.6165,0.6181,0.6204,0.6218,0.6209,0.6259,0.6249,0.6267,0.6266,0.6277,0.6276,0.632,0.6288,0.6288,0.6288,0.6288,0,0.5936,0.5965,0.5987,0.6008,0.6041,0.6055,0.6087,0.6102,0.6123,0.6147,0.6155,0.6177,0.6196,0.622,0.6232,0.6265,0.6272,0.628,0.6282,0.6279,0.6277,0.6288,0.6286,0.6289,0.6289,0.6289,0.6289,0,0.5963,0.5979,0.6017,0.6046,0.6054,0.6076,0.6101,0.6121,0.6135,0.6165,0.6173,0.6195,0.6224,0.6241,0.6278,0.6286,0.6322,0.6324,0.6313,0.6314,0.633,0.6328,0.6382,0.6389,0.6353,0.6354,0.6354,0,0.5986,0.6008,0.6039,0.6055,0.607,0.6097,0.6114,0.6129,0.6147,0.6178,0.6194,0.6224,0.6248,0.6295,0.6314,0.6342,0.6344,0.6361,0.6348,0.6343,0.6343,0.6341,0.6342,0.6363,0.6363,0.6364,0.6364,0,0.6025,0.6032,0.6057,0.6085,0.6105,0.6128,0.6151,0.6164,0.6182,0.6202,0.6231,0.625,0.6287,0.6316,0.6346,0.6361,0.6365,0.6368,0.6373,0.6369,0.6361,0.6364,0.6318,0.6366,0.6366,0.6366,0.6366,0.6366,0.605,0.607,0.6094,0.6121,0.614,0.616,0.618,0.6196,0.6221,0.6252,0.6259,0.629,0.6314,0.6354,0.637,0.6394,0.6391,0.6399,0.6401,0.6403,0.6402,0.6357,0.64,0.64,0.64,0.64,0.64,0,0.6089,0.6104,0.6129,0.616,0.6181,0.6183,0.6207,0.6225,0.6252,0.6274,0.6297,0.633,0.6358,0.6379,0.6408,0.6423,0.6425,0.643,0.6428,0.6431,0.6404,0.6396,0.6427,0.6427,0.6427,0.6427,0.6427,0.6427,0.6111,0.6143,0.6152,0.6194,0.6209,0.6239,0.6253,0.6271,0.6289,0.6325,0.6348,0.6361,0.6383,0.6413,0.6438,0.6443,0.6453,0.6457,0.6462,0.6436,0.6433,0.6431,0.6423,0.6459,0.6459,0.6487,0.6488,0.6488]},{"header":{"parameterUnit":"m.s-1","parameterCategory":1,"la1":30.2991,"la2":30.254,"lo1":-89.0895,"lo2":-89.0444,"dy":0.0017,"dx":0.0017,"nx":28,"ny":28,"refTime":"2025-06-01T03:00:00:Z","depth":0,"parameterNumber":3,"parameterNumberName":"V-component_of_WINDS"},"data":[0,0,0,0,0,0,0,0,0,0,0,0,0,0,0,0,0,0,0,0,0,0,0,0,0,0,0,0,0,0,0,0,0,0,0,0,0,0,0,0,0,0,0,0,0,0,0,0,0,0,0,0,0,0,0,0,0,0,3.9868,3.9866,0,3.9745,3.9743,3.9742,3.9633,3.9632,3.9631,3.963,3.9499,3.9496,3.9494,0,0,0,0,0,0,0,0,0,0,0,0,0,4.0005,4.0003,3.9868,3.9866,3.9865,3.9745,3.9743,3.9741,3.9634,3.9632,3.9631,3.9629,3.9499,3.9497,3.9494,0,0,0,0,0,0,0,0,0,0,0,0,0,3.992,4.0002,3.9868,3.9797,3.9789,3.9745,3.9743,3.9741,3.9634,3.9632,3.963,3.9628,3.95,3.9497,3.9493,3.9509,0,0,3.9483,3.9481,0,0,0,0,0,0,0,0,3.9925,3.9915,3.9809,3.9802,3.9793,3.9703,3.9743,3.9663,3.9634,3.9693,3.963,3.9628,3.9568,3.9558,3.9539,3.9503,3.9497,3.9482,3.948,3.9479,3.9478,0,0,0,0,0,0,0,3.9931,3.992,3.9819,3.9807,3.9798,3.9769,3.9755,3.9727,3.9642,3.9687,3.9679,3.9666,3.9563,3.9543,3.9535,3.9495,3.9482,3.9479,3.9477,3.9476,3.9463,3.9464,0,0,0,0,0,0,3.9948,3.9925,3.9823,3.9815,3.9856,3.9768,3.9752,3.9733,3.9642,3.9626,3.9668,3.9662,3.955,3.954,3.953,3.954,3.9479,3.9475,3.9473,3.9461,3.9463,3.9465,0,0,0,0,0,0,3.9952,3.994,3.9828,3.9868,3.9851,3.9768,3.9747,3.9732,3.9712,3.9627,3.9611,3.9664,3.9548,3.9535,3.9515,3.9534,3.9474,3.9471,3.9459,3.9462,3.9464,3.9562,0,0,0,0,0,0,3.9956,3.9942,3.9948,3.9869,3.985,3.9816,3.9749,3.9731,3.9707,3.9697,3.9619,3.9604,3.9545,3.9521,3.9511,3.9528,3.9468,3.9457,3.946,3.9463,3.9557,3.9568,3.9577,0,0,0,0,0,3.9962,3.998,3.9949,3.9937,3.9856,3.9818,3.9806,3.974,3.9709,3.9713,3.9659,3.9607,3.9535,3.952,3.9508,3.9524,3.9455,3.9459,3.9463,3.9552,3.9566,3.9577,0,0,0,0,0,0,4.0062,3.9968,3.9933,3.9927,3.9881,3.9799,3.9803,3.9757,3.9717,3.971,3.9628,3.9611,3.9599,3.956,3.9545,3.9534,3.9488,3.949,3.9559,3.9572,3.9582,3.959,3.9465,0,0,0,0,0,4.0084,4.0062,3.9981,3.9983,3.9962,3.9887,3.9868,3.9821,3.9769,3.9749,3.9693,3.9644,3.961,3.9589,3.9553,3.9552,3.9531,3.9557,3.9567,3.9576,3.9578,3.9572,3.9582,3.9478,3.9478,3.9478,0,0,4.0128,4.0074,4.0065,4.0002,3.9961,3.9939,3.9871,3.9851,3.9832,3.9745,3.9722,3.968,3.9619,3.9608,3.96,3.9575,3.9603,3.9581,3.9589,3.9586,3.9577,3.9587,3.9596,3.9481,3.948,3.948,0,0,4.0196,4.0155,4.0151,4.0112,4.0051,4.0001,4.0001,3.9926,3.9895,3.9871,3.9805,3.9782,3.9725,3.9684,3.9656,3.971,3.966,3.9701,3.9753,3.9749,3.9757,3.9764,3.9781,3.9788,3.9703,3.9704,3.9704,0,4.0258,4.0223,4.0155,4.0138,4.0111,4.0034,4.0028,3.9993,3.9924,3.9906,3.988,3.9807,3.976,3.9738,3.9751,3.9732,3.9726,3.9708,3.9762,3.9768,3.9773,3.9788,3.9795,3.9709,3.9708,3.9708,3.9707,0,4.0301,4.0278,4.0282,4.0218,4.0192,4.0181,4.011,4.0092,4.0048,4.0,3.9976,3.9918,3.9869,3.986,3.9816,3.9831,3.9817,3.9778,3.9729,3.9789,3.9802,3.9807,3.9716,3.9714,3.9713,3.9712,0,0,4.0426,4.0327,4.0329,4.0298,4.0227,4.0206,4.0192,4.0145,4.013,4.0085,4.0068,4.0023,3.9986,3.9954,3.9905,3.9902,3.9945,3.9862,3.9859,3.9877,3.9955,3.9983,3.9991,3.9913,3.9914,3.9914,3.9959,0,4.0481,4.0451,4.039,4.0378,4.0355,4.0282,4.0268,4.0222,4.0177,4.0149,4.0099,4.0067,4.0022,4.0002,3.9996,3.9942,3.9959,3.9938,3.9894,3.9893,3.9909,3.9998,4.0028,4.0073,3.9964,3.9965,3.9965,0,4.054,4.0501,4.0488,4.0417,4.0404,4.0394,4.0345,4.0321,4.0266,4.0234,4.0199,4.0146,4.0124,4.0082,4.005,4.0036,4.0015,3.9986,3.9986,3.9977,3.9931,3.9989,4.0086,4.0092,3.9973,3.9972,3.9972,0,4.063,4.0574,4.0558,4.0535,4.0453,4.0447,4.0412,4.0355,4.0331,4.0289,4.0271,4.0227,4.0202,4.0168,4.0103,4.0079,4.0077,4.003,4.0047,4.0049,4.0047,4.0048,4.014,4.0039,4.0039,4.0039,4.0039,0,4.0695,4.0689,4.0598,4.0588,4.0579,4.0508,4.0501,4.0459,4.0409,4.0389,4.0323,4.0304,4.0221,4.0193,4.0142,4.0122,4.0111,4.0083,4.0069,4.0087,4.0091,4.007,4.0064,4.004,4.004,4.004,4.0039,0,4.0793,4.0732,4.071,4.0634,4.0615,4.0611,4.0546,4.0532,4.0485,4.0459,4.0449,4.0374,4.0337,4.027,4.0213,4.0179,4.0168,4.0146,4.0187,4.0178,4.0198,4.0196,4.0278,4.0284,4.0182,4.0183,4.0184,0,4.0837,4.0831,4.0756,4.0738,4.0706,4.0679,4.0654,4.0584,4.0561,4.0498,4.0492,4.0451,4.0413,4.0357,4.0296,4.0252,4.0226,4.0258,4.0219,4.0237,4.0223,4.0224,4.0222,4.0266,4.0267,4.0269,4.027,0,4.0922,4.0892,4.086,4.0817,4.079,4.0752,4.0711,4.07,4.0621,4.0597,4.056,4.0531,4.0474,4.0433,4.0381,4.0342,4.0292,4.0283,4.0284,4.0301,4.0324,4.031,4.0208,4.0281,4.028,4.0279,4.0278,4.0278,4.0992,4.0983,4.0928,4.0894,4.0857,4.082,4.0804,4.0755,4.0723,4.0672,4.0633,4.0598,4.0542,4.0467,4.0432,4.0402,4.0378,4.0381,4.0381,4.0382,4.0388,4.0332,4.0392,4.0392,4.0391,4.0391,4.0391,0,4.107,4.1032,4.1002,4.0948,4.0921,4.0879,4.0831,4.0811,4.0782,4.0735,4.07,4.0656,4.0616,4.0553,4.0507,4.0495,4.047,4.0485,4.0483,4.0475,4.0413,4.0415,4.0505,4.0505,4.0505,4.0505,4.0505,4.0505,4.1108,4.109,4.1054,4.1016,4.0977,4.0944,4.092,4.0885,4.0847,4.0802,4.0769,4.0729,4.0675,4.0624,4.0585,4.0567,4.0552,4.0573,4.0548,4.049,4.0479,4.0469,4.0471,4.0571,4.0571,4.0612,4.0612,4.0612]}]]